Powrót do katalogu

METEOR 2-17

AktywnyPogodaPO
NORAD 18820·PAYLOAD·🇷🇺 Russia

Wystrzelony Jan 30, 1988 z Plesetsk Cosmodrome

Loading…

Następne Przeloty (najbliższe 24 godziny)

TLE

ŚwieżeSource: Space-Track

Epoka: Sep 14, 2026, 10:46 UTC

1 18820U 88005A   26257.44920502  .00000027  00000-0  10665-4 0  9999
2 18820  82.5381 252.5278 0016417 183.9175 329.9897 13.85663819952544

Śledź METEOR 2-17 w czasie rzeczywistym z AllMySat

Download on the App Store